Location: Brotuna
(46.2000°N, 22.6000°E)
Time: 00:09:22
(UTC+00:00)

Spot 2 Rocket - Pass Details

Date: 09 April 2020
Orbit: 757 x 773 km, 98.6° (Epoch: 30 May)

Event Time Altitude Azimuth Distance (km) Brightness Sun altitude
Exits shadow 18:42:06 25° 113° (ESE) 1,520 4.4 -15.7°
Maximum altitude 18:44:17 37° 66° (ENE) 1,195 4.2 -16.1°
Drops below altitude 10° 18:48:57 10° 1° (N) 2,323 6.4 -16.7°
Sets 18:51:24 0° 353° (N) 3,252 7.3 -17.1°
